Regional Weather Roundup
Issued by NWS

Home | Current Version | Previous Version | Graphics & Text | Print | Product List | Glossary Off
Versions: 1 2 3 4 5 6 7 8 9 10 11 12 13 14 15 16 17 18 19 20 21 22 23 24 25 26 27 28 29 30 31 32 33 34 35 36 37 38 39 40 41 42 43 44 45 46 47 48 49 50

000
ASUS43 KMKX 281959
RWRWI

WISCONSIN REGIONAL WEATHER ROUNDUP
NATIONAL WEATHER SERVICE MILWAUKEE/SULLIVAN WI
300 PM CDT SAT MAR 28 2015

NOTE: "FAIR" INDICATES FEW OR NO CLOUDS BELOW 12,000 FEET WITH NO
SIGNIFICANT WEATHER AND/OR OBSTRUCTIONS TO VISIBILITY.

WIZ001-002-006>008-014>016-023>028-282100-
NORTHWEST WISCONSIN

CITY           SKY/WX    TMP DP  RH WIND       PRES   REMARKS
SUPERIOR ARPT  SUNNY     44  11  26 S14       30.11F
ASHLAND        SUNNY     44   6  21 S12G20    30.13F
HAYWARD        SUNNY     40   9  28 S16G22    30.13F WCI  31
SIREN          SUNNY     42   3  19 S13G20    30.15F
CUMBERLAND     SUNNY     37  10  32 S10G21    30.15F WCI  30
RICE LAKE      SUNNY     40   8  26 S10       30.19F WCI  33
CHETEK         SUNNY     40  10  28 SE10G18   30.18F WCI  34
LADYSMITH      SUNNY     40  11  30 SW13      30.19F WCI  33
EAU CLAIRE     NOT AVBL
MENOMONIE      SUNNY     41   7  24 S12       30.20F
NEW RICHMOND   SUNNY     40   9  28 SW14G21   30.18F WCI  32
OSCEOLA        SUNNY     42  12  29 S13G18    30.20F
$$

WIZ003>005-009-010-017-018-282100-
NORTH CENTRAL WISCONSIN

CITY           SKY/WX    TMP DP  RH WIND       PRES   REMARKS
MANITOWISH WTR SUNNY     38   7  27 SW10G17   30.12F WCI  32
ARBOR VITAE    SUNNY     39  11  31 SW13      30.13F WCI  32
WOODRUFF       SUNNY     39  11  31 SW13      30.13F WCI  32
RHINELANDER    SUNNY     39  10  30 SW10      30.15F WCI  32
EAGLE RIVER    SUNNY     37   5  26 S9        30.14F WCI  30
LAND O LAKES   SUNNY     38   3  22 SW7       30.13F WCI  33
PHILLIPS       SUNNY     37  10  32 S10G20    30.15F WCI  30
TOMAHAWK       SUNNY     38  11  33 CALM      30.17F
MEDFORD        SUNNY     34  14  42 S9        30.18F WCI  27
MERRILL        SUNNY     38  12  35 W10       30.19F WCI  30
$$

WIZ029-030-035-036-043>047-282100-
CENTRAL WISCONSIN

CITY           SKY/WX    TMP DP  RH WIND       PRES   REMARKS
WAUSAU         SUNNY     37   8  30 SW10      30.18F WCI  30
MOSINEE        SUNNY     37  10  32 S9        30.20F WCI  31
MARSHFIELD     SUNNY     42   9  25 S13G18    30.19F
STEVENS POINT  SUNNY     37   8  29 SW9       30.22F WCI  30
WAUPACA        SUNNY     42   4  20 SW8       30.24F
WAUTOMA        NOT AVBL
WISC RAPIDS    SUNNY     40   3  21 S7        30.23F
CAMP DOUGLAS   NOT AVBL
$$

WIZ011>013-019>022-031-037>040-048>050-282100-
NORTHEAST WISCONSIN

CITY           SKY/WX    TMP DP  RH WIND       PRES   REMARKS
ANTIGO         SUNNY     34  13  41 SW8       30.19F WCI  27
SHAWANO        SUNNY     40  12  32 SW5       30.24F
OCONTO         SUNNY     35  15  44 S12G17    30.26S WCI  27
STURGEON BAY   SUNNY     34  18  51 S8        30.27F WCI  27
GREEN BAY      SUNNY     36  19  50 SW12      30.26F WCI  28
MANITOWOC      NOT AVBL
APPLETON       SUNNY     37  10  32 SW9       30.25F WCI  31
CLINTONVILLE   SUNNY     37  10  32 W6        30.24F WCI  33
OSHKOSH        SUNNY     37  11  34 MISG      30.25F
$$

WIZ032>034-041-042-053>061-282100-
SOUTHWEST WISCONSIN

CITY           SKY/WX    TMP DP  RH WIND       PRES   REMARKS
LA CROSSE      SUNNY     42  11  28 S14       30.24F
SPARTA         SUNNY     40   7  25 S7        30.25F
VIROQUA        SUNNY     36  13  39 S8        30.24F WCI  30
BOSCOBEL       SUNNY     39  15  37 SW7       30.28F WCI  34
PRAIRIE DU CHI SUNNY     38   9  30 S5        30.27F WCI  34
PLATTEVILLE    SUNNY     38  15  39 SE8       30.27F WCI  32
$$

WIZ056-057-062-063-064-067-068-282100-
SOUTH CENTRAL WISCONSIN

CITY           SKY/WX    TMP DP  RH WIND       PRES   REMARKS
REEDSBURG      SUNNY     38  12  34 S13       30.25F WCI  30
BARABOO/DELLS  SUNNY     38   8  28 W7        30.25F WCI  33
LONE ROCK      NOT AVBL
MINERAL POINT  SUNNY     36  14  41 S3        30.26F
MADISON        MOSUNNY   37   9  31 S9        30.27F WCI  30
MIDDLETON      SUNNY     39  12  33 S9        30.28F WCI  33
WATERTOWN      SUNNY     38  10  32 SW8       30.27F WCI  32
MONROE         SUNNY     36  14  41 S8        30.27F WCI  29
JANESVILLE     SUNNY     39   7  26 S5        30.28F
$$

WIZ051-052-058>065-066-070>072-282100-
SOUTHEAST WISCONSIN

CITY           SKY/WX    TMP DP  RH WIND       PRES   REMARKS
MILWAUKEE      MOSUNNY   33  15  47 SE12      30.30F WCI  24
WAUKESHA       MOSUNNY   36  10  35 SE5       30.28F WCI  32
MILWAUKEE/TIMM SUNNY     36  14  41 SE9       30.29F WCI  29
RACINE         SUNNY     32  14  47 E12       30.32F WCI  23
BURLINGTON     SUNNY     36  10  34 CALM      30.28F
KENOSHA        SUNNY     33  14  45 SE9       30.30F WCI  25
FOND DU LAC    SUNNY     38  10  31 SW9       30.26F WCI  31
SHEBOYGAN      SUNNY     36  20  52 SE8       30.27F WCI  30
WEST BEND      SUNNY     36  10  35 SW5       30.27F WCI  32
JUNEAU         SUNNY     36  10  34 CALM      30.28F
$$

LSZ147-162-282100-
LAKE SUPERIOR

STATION/POSITION TIME  TEMP    WIND        PRES    WAVE
                       AIR SEA DIR/SP/G            HT/PER
                 (UTC) (F)     (DEG/KT/KT) (MB)    (FT/S)
DEVILS ISLAND    1900   31      40/  3/  4 1022.5F
PORT WING        1900   33      20/  6/  7 1021.3
SAXON HARBOR     1940   33      40/  7/ 10 1020.7F
$$

LMZ867-665-643>646-282100-
LAKE MICHIGAN

STATION/POSITION TIME  TEMP    WIND        PRES    WAVE
                       AIR SEA DIR/SP/G            HT/PER
                 (UTC) (F)     (DEG/KT/KT) (MB)    (FT/S)
NORTHPORT PIER   1900   27     140/ 13/ 16 1025.1F
SISTER BAY       1917   41     270/ 10/ 12   N/A
KEWAUNEE LAKESHO 1900   28     170/ 14/ 16 1024.8F
SHEBOYGAN LAKESH 1900   28     150/ 12/ 13 1027.4F
PORT WASHINGTON  1940   31     150/  9/ 12 1026.4F
MILWAUKEE LAKESH 1900   27     130/  9/ 11   N/A
KENOSHA   LAKESH 1900   29     110/  7/ 10 1027.1F
$$

TC  - TEMPERATURE IN CELSIUS
VSB - VISIBILITY IN STATUTE MILES
WCI - WIND CHILL INDEX
HX  - HEAT INDEX




USA.gov is the U.S. government's official web portal to all federal, state and local government web resources and services.